Location: Saint-Palais-sur-Mer
(45.6429°N, 1.0859°W)
Time: 21:48:43
(UTC+01:00)

Tiangong - Visible Passes

Search period start: 29 November 2023 00:00
Search period end: 09 December 2023 00:00
Orbit: 374 x 384 km, 41.5° (Epoch: 29 November)

Date Brightness Start Highest point End Pass type
(mag) Time Alt. Az. Time Alt. Az. Time Alt. Az.
29 Nov -0.7 18:34:07 10° WSW 18:37:00 33° S 18:39:36 12° SE visible
29 Nov 1.3 20:11:26 10° WSW 20:11:43 11° SW 20:11:43 11° SW visible
30 Nov 0.2 19:09:27 10° WSW 19:11:52 20° SSW 19:13:24 15° SSE visible
01 Dec -0.2 18:07:43 10° WSW 18:10:28 27° SSW 18:13:12 10° SE visible
02 Dec 0.8 18:43:13 10° WSW 18:45:06 15° SSW 18:46:59 10° SSE visible
04 Dec 1.4 18:17:37 10° SW 18:17:56 10° SSW 18:18:16 10° SSW visible
